Change the Weather History Date:

Thursday, November 8, 2012

  Actual Average Record
Temperature  
Mean Temperature 73 °F 58 °F  
Max Temperature 85 °F 71 °F 93 °F (1980)
Min Temperature 60 °F 46 °F 25 °F (1938)
Degree Days  
Heating Degree Days 0 8  
Month to date heating degree days 11 53  
Since 1 July heating degree days 128 144  
Cooling Degree Days 8 1  
Month to date cooling degree days 18 9  
Year to date cooling degree days 3203 2493  
Growing Degree Days 22 (Base 50)    
Moisture  
Dew Point 52 °F    
Average Humidity 48    
Maximum Humidity 65    
Minimum Humidity 31    
Precipitation  
Precipitation 0.00 in 0.05 in 1.25 in (1940)
Month to date precipitation 0.00 0.42  
Year to date precipitation 21.78 19.68  
Snow  
Snow 0.00 in 0.00 in 5.80 in (1968)
Month to date snowfall 0.0 0.0  
Since 1 July snowfall T 0.0  
Snow Depth 0.00 in    
Sea Level Pressure  
Sea Level Pressure 29.94 in    
Wind  
Wind Speed 15 mph (South)    
Max Wind Speed 25 mph    
Max Gust Speed 33 mph    
Visibility 10 miles    
Events      
T = Trace of Precipitation, MM = Missing Value Source: NWS Daily Summary

Daily Weather History Graph

Daily Weather History Graph

Search for Another Location

Airport or City:

Trip Planner

Search our weather history database for the weather conditions in past years. The results will help you decide how hot, cold, wet, or windy it might be!

Date:

Astronomy

Nov. 08, 2012 Rise Set
Actual Time 7:03 AM CST 5:47 PM CST
Civil Twilight 6:38 AM CST 6:12 PM CST
Nautical Twilight 6:09 AM CST 6:41 PM CST
Astronomical Twilight 5:40 AM CST 7:10 PM CST
Moon 1:22 AM CST (11/8) 2:09 PM CST (11/8)
Length of Visible Light 11h 34m
Length of Day
10h 43m
Waning Crescent, 32% of the Moon is Illuminated
Nov 8
Waning Crescent
Nov 13
New
Nov 20
First Quarter
Nov 28
Full
Dec 6
Last Quarter

Hourly Weather History & Observations

Time (CST) Temp. Heat Index Dew Point Humidity Pressure Visibility Wind Dir Wind Speed Gust Speed Precip Events Conditions
12:51 AM 64.0 °F - 50.0 °F 60% 29.98 in 10.0 mi South 9.2 mph - N/A   Clear
1:51 AM 63.0 °F - 50.0 °F 63% 29.98 in 10.0 mi South 10.4 mph - N/A   Clear
2:51 AM 62.1 °F - 50.0 °F 65% 29.97 in 10.0 mi South 9.2 mph - N/A   Clear
3:51 AM 61.0 °F - 48.9 °F 64% 29.96 in 10.0 mi South 12.7 mph - N/A   Clear
4:51 AM 61.0 °F - 48.9 °F 64% 29.96 in 10.0 mi SSW 13.8 mph 20.7 mph N/A   Clear
5:51 AM 61.0 °F - 48.9 °F 64% 29.97 in 10.0 mi South 15.0 mph 20.7 mph N/A   Clear
6:51 AM 64.0 °F - 51.1 °F 63% 29.99 in 10.0 mi South 19.6 mph 26.5 mph N/A   Clear
7:51 AM 64.0 °F - 48.9 °F 58% 30.01 in 10.0 mi SSW 13.8 mph 21.9 mph N/A   Clear
8:51 AM 68.0 °F - 54.0 °F 61% 30.02 in 10.0 mi SSW 11.5 mph - N/A   Clear
9:51 AM 73.0 °F - 55.9 °F 55% 30.02 in 10.0 mi SSW 18.4 mph 25.3 mph N/A   Clear
10:51 AM 78.1 °F - 55.9 °F 46% 30.00 in 10.0 mi SSW 20.7 mph 28.8 mph N/A   Clear
11:51 AM 77.0 °F - 55.9 °F 48% 29.98 in 10.0 mi South 21.9 mph 27.6 mph N/A   Clear
12:51 PM 82.9 °F 81.8 °F 53.1 °F 36% 29.94 in 10.0 mi South 21.9 mph 29.9 mph N/A   Clear
1:51 PM 84.0 °F - 52.0 °F 33% 29.91 in 10.0 mi SSW 24.2 mph 31.1 mph N/A   Clear
2:51 PM 84.9 °F - 52.0 °F 32% 29.88 in 10.0 mi SSW 21.9 mph 27.6 mph N/A   Clear
3:51 PM 84.0 °F - 50.0 °F 31% 29.88 in 10.0 mi South 16.1 mph 28.8 mph N/A   Clear
4:51 PM 82.0 °F - 48.0 °F 30% 29.88 in 10.0 mi South 15.0 mph 21.9 mph N/A   Clear
5:51 PM 78.1 °F - 48.9 °F 36% 29.89 in 10.0 mi South 9.2 mph - N/A   Clear
6:51 PM 75.0 °F - 53.1 °F 46% 29.90 in 10.0 mi South 10.4 mph - N/A   Clear
7:51 PM 75.0 °F - 55.0 °F 50% 29.91 in 10.0 mi South 13.8 mph 19.6 mph N/A   Clear
8:51 PM 73.9 °F - 55.0 °F 52% 29.91 in 10.0 mi South 17.3 mph 23.0 mph N/A   Clear
10:51 PM 70.0 °F - 55.0 °F 59% 29.91 in 10.0 mi South 12.7 mph - N/A   Clear
11:51 PM 69.1 °F - 54.0 °F 58% 29.91 in 10.0 mi South 15.0 mph 23.0 mph N/A   Clear